Regional Weather Roundup
Issued by NWS Northern Indiana

Home | Current Version | Previous Version | Graphics & Text | Print | Product List | Glossary On
Versions: 1 2 3 4 5 6 7 8 9 10 11 12 13 14 15 16 17 18 19 20 21 22 23 24 25 26 27 28 29 30 31 32 33 34 35 36 37 38 39 40 41 42 43 44 45 46 47 48 49 50
000
ASUS43 KIWX 241200
RWRIWX

KIWX WEATHER ROUNDUP
NATIONAL WEATHER SERVICE NORTHERN INDIANA
800 AM EDT TUE APR 24 2018

NOTE: "FAIR" INDICATES FEW OR NO CLOUDS BELOW 12,000 FEET WITH NO
SIGNIFICANT WEATHER AND/OR OBSTRUCTIONS TO VISIBILITY.

* THESE STATIONS ARE NOT UNDER NWS QUALITY CONTROL. THEY ALSO MAY NOT
  REPORT WEATHER SUCH AS PRECIPITATION OR FOG.

INZ001>027-241300-
NORTHERN INDIANA

CITY           SKY/WX    TMP DP  RH WIND       PRES   REMARKS
GARY*          PTSUNNY   45  41  87 N6        30.06S
KNOX*          CLOUDY    50  46  87 E7        30.04R
SOUTH BEND     CLOUDY    52  47  83 E9        30.06S
6HR MIN TEMP:  51; 6HR MAX TEMP:  53;

ELKHART*       CLOUDY    50  16  25 E7        30.06S FOG
GOSHEN         CLOUDY    52  49  89 E8        30.05S
6HR MIN TEMP:  50; 6HR MAX TEMP:  52; 6HR PCP: TRACE;

MONTICELLO*    CLOUDY    51  49  95 NE6       30.01S
6HR MIN TEMP:  50; 6HR MAX TEMP:  52;

ROCHESTER*     CLOUDY    54  50  87 NE5       30.04S
WARSAW*        CLOUDY    50  48  93 E7        30.05R
FORT WAYNE     CLOUDY    52  49  89 E12       30.05R
6HR MIN TEMP:  51; 6HR MAX TEMP:  52; 6HR PCP:  0.01;


$$
INZ028>050-241300-
CENTRAL INDIANA

CITY           SKY/WX    TMP DP  RH WIND       PRES   REMARKS
LAFAYETTE      CLOUDY    52  50  93 NE9       30.00S
6HR MIN TEMP:  50; 6HR MAX TEMP:  52;

KOKOMO*        CLOUDY    51  49  92 NE9       30.02S
6HR MIN TEMP:  50; 6HR MAX TEMP:  51;

MUNCIE*        CLOUDY    52  50  93 E8        30.01S FOG
6HR MIN TEMP:  52; 6HR MAX TEMP:  53; 6HR PCP:  0.02;

INDIANAPOLIS   LGT RAIN  51  50  96 E9        29.98S FOG
6HR MIN TEMP:  51; 6HR MAX TEMP:  53; 6HR PCP:  0.02;


$$
MIZ043>046-050>051-056>058-064>065-071>073-077>080-241300-
SOUTHWEST LOWER MICHIGAN

CITY           SKY/WX    TMP DP  RH WIND       PRES   REMARKS
BATTLE CREEK   CLOUDY    52  49  89 E3        30.09S
6HR MIN TEMP:  52; 6HR MAX TEMP:  54; 6HR PCP: TRACE;

BENTON HARBOR  CLOUDY    53  47  79 NE5       30.06S
6HR MIN TEMP:  52; 6HR MAX TEMP:  56; 6HR PCP: TRACE;

COLDWATER*     CLOUDY    53  49  87 E5        30.08S
6HR MIN TEMP:  51; 6HR MAX TEMP:  53;

HILLSDALE*     CLOUDY    52  45  76 E9        30.08S
HOLLAND        CLOUDY    53  47  79 E7        30.09R
6HR MIN TEMP:  52; 6HR MAX TEMP:  57; 6HR PCP: TRACE;

GRAND RAPIDS   CLOUDY    53  48  83 E6        30.09S
6HR MIN TEMP:  52; 6HR MAX TEMP:  57; 6HR PCP: TRACE;

KALAMAZOO      CLOUDY    54  48  80 SE7       30.09R
6HR MIN TEMP:  53; 6HR MAX TEMP:  55; 6HR PCP: TRACE;


$$
OHZ001>008-015>018-024>025-241300-
NORTHWEST OHIO

CITY           SKY/WX    TMP DP  RH WIND       PRES   REMARKS
WAUSEON*       CLOUDY    54  50  87 E12       30.09R
DEFIANCE       CLOUDY    53  47  79 E9        30.08R
6HR MIN TEMP:  51; 6HR MAX TEMP:  54; 6HR PCP:  0.01;

FINDLAY        CLOUDY    55  45  68 E7        30.06R
6HR MIN TEMP:  55; 6HR MAX TEMP:  57;

TOLEDO EXPRESS CLOUDY    53  49  86 E13       30.10R
6HR MIN TEMP:  53; 6HR MAX TEMP:  56;

TOLEDO METCALF CLOUDY    50  46  86 NE10      30.11S
6HR MIN TEMP:  50; 6HR MAX TEMP:  56;

LIMA           CLOUDY    53  49  86 E13       30.05R
6HR MIN TEMP:  52; 6HR MAX TEMP:  53;


$$
AND FOR LAKE MICHIGAN COASTAL AND OPEN LAKE BUOY OBSERVATIONS

STATION/POSITION TEMP    WIND        PRES    VSBY  WAVE
                 AIR SEA DIR/SP/G                  HT/PER
                 (F)     (DEG/KT/KT) (MB)    (MI)  (FT/S)
CALUMET HARBOR    42     340/  4/  7 1017.4
MICHIGAN CITY     45      50/  7/  8   N/A
BURNS HARBOR      42      30/  3/  5 1018.3S
SAINT JOSEPH      53      50/  1/  4 1018.3
4 MI NW BRIDGMAN  47 42  280/  4/  6 1018.4R         1/ 4

$$
&&



USA.gov is the U.S. government's official web portal to all federal, state and local government web resources and services.